| time (UTC) | temp F | wind direction | speed MPH | gust MPH | rain 1hr in | rain 24hr in | rain mn in | humidity % | barometer mb |
| 20260903082017 | 78 | 0.0 | 0.0 | 0.00 | 0.00 | 0.00 | 68 | 1026.2 | |
| 20260903081037 | 78 | 0.0 | 0.0 | 0.00 | 0.00 | 0.00 | 66 | 1026.1 | |
| 20260903080017 | 79 | 0.0 | 0.0 | 0.00 | 0.00 | 0.00 | 64 | 1026.3 | |
| 20260903075017 | 80 | 0.0 | 0.0 | 0.00 | 0.00 | 0.00 | 63 | 1026.3 | |
| 20260903074017 | 80 | 0.0 | 1.0 | 0.00 | 0.00 | 0.00 | 62 | 1026.3 | |
| 20260903073037 | 81 | 0.0 | 2.0 | 0.00 | 0.00 | 0.00 | 61 | 1026.5 | |
| 20260903072017 | 81 | 203 | 1.0 | 3.0 | 0.00 | 0.00 | 0.00 | 60 | 1026.5 |
| 20260903071017 | 81 | 180 | 2.0 | 3.0 | 0.00 | 0.00 | 0.00 | 60 | 1026.4 |
| 20260903070017 | 81 | 0.0 | 2.0 | 0.00 | 0.00 | 0.00 | 60 | 1026.3 | |
| 20260903065017 | 81 | 135 | 2.0 | 3.0 | 0.00 | 0.00 | 0.00 | 59 | 1026.1 |
| 20260903064017 | 81 | 158 | 3.0 | 4.0 | 0.00 | 0.00 | 0.00 | 59 | 1026.2 |
| 20260903063037 | 81 | 135 | 3.0 | 4.0 | 0.00 | 0.00 | 0.00 | 59 | 1026.3 |
| 20260903062037 | 81 | 0.0 | 0.0 | 0.00 | 0.00 | 0.00 | 58 | 1026.3 | |
| 20260903061017 | 81 | 0.0 | 0.0 | 0.00 | 0.00 | 0.00 | 57 | 1026.3 | |
| 20260903060017 | 82 | 0.0 | 0.0 | 0.00 | 0.00 | 0.00 | 56 | 1026.3 | |
| 20260903055017 | 82 | 293 | 1.0 | 2.0 | 0.00 | 0.00 | 0.00 | 55 | 1026.4 |
| 20260903054017 | 82 | 0.0 | 3.0 | 0.00 | 0.00 | 0.00 | 55 | 1026.4 | |
| 20260903053017 | 82 | 0.0 | 1.0 | 0.00 | 0.00 | 0.00 | 56 | 1026.4 | |
| 20260903052017 | 82 | 248 | 1.0 | 3.0 | 0.00 | 0.00 | 0.00 | 55 | 1026.4 |
| 20260903051017 | 82 | 0.0 | 0.0 | 0.00 | 0.00 | 0.00 | 56 | 1026.1 | |
| 20260903050017 | 82 | 0.0 | 0.0 | 0.00 | 0.00 | 0.00 | 56 | 1026.2 | |
| 20260903045017 | 82 | 0.0 | 0.0 | 0.00 | 0.00 | 0.00 | 56 | 1026.2 | |
| 20260903044017 | 82 | 0.0 | 0.0 | 0.00 | 0.00 | 0.00 | 55 | 1026.1 | |
| 20260903043017 | 82 | 0.0 | 0.0 | 0.00 | 0.00 | 0.00 | 54 | 1026.1 | |
| 20260903042017 | 83 | 0.0 | 0.0 | 0.00 | 0.00 | 0.00 | 53 | 1026.0 | |
| 20260903041017 | 83 | 293 | 1.0 | 2.0 | 0.00 | 0.00 | 0.00 | 53 | 1025.8 |
| 20260903040017 | 83 | 293 | 2.0 | 3.0 | 0.00 | 0.00 | 0.00 | 53 | 1025.8 |
| 20260903035017 | 84 | 0.0 | 0.0 | 0.00 | 0.00 | 0.00 | 52 | 1025.9 | |
| 20260903034017 | 84 | 0.0 | 2.0 | 0.00 | 0.00 | 0.00 | 51 | 1025.7 | |
| 20260903033017 | 84 | 180 | 1.0 | 2.0 | 0.00 | 0.00 | 0.00 | 49 | 1025.5 |
| 20260903032017 | 84 | 135 | 3.0 | 5.0 | 0.00 | 0.00 | 0.00 | 49 | 1025.3 |
| 20260903031017 | 84 | 158 | 2.0 | 4.0 | 0.00 | 0.00 | 0.00 | 50 | 1024.7 |
| 20260903030017 | 84 | 135 | 3.0 | 5.0 | 0.00 | 0.00 | 0.00 | 49 | 1024.5 |
| 20260903025017 | 84 | 158 | 3.0 | 5.0 | 0.00 | 0.00 | 0.00 | 51 | 1024.5 |
| 20260903024017 | 84 | 158 | 3.0 | 4.0 | 0.00 | 0.00 | 0.00 | 51 | 1024.0 |
| 20260903023017 | 85 | 180 | 1.0 | 3.0 | 0.00 | 0.00 | 0.00 | 51 | 1024.1 |
| 20260903022017 | 85 | 0.0 | 1.0 | 0.00 | 0.00 | 0.00 | 50 | 1023.9 | |
| 20260903021017 | 86 | 0.0 | 1.0 | 0.00 | 0.00 | 0.00 | 49 | 1024.1 | |
| 20260903020017 | 87 | 248 | 1.0 | 3.0 | 0.00 | 0.00 | 0.00 | 47 | 1024.1 |
| 20260903015017 | 87 | 293 | 1.0 | 2.0 | 0.00 | 0.00 | 0.00 | 47 | 1024.0 |
| 20260903014017 | 87 | 248 | 3.0 | 5.0 | 0.00 | 0.00 | 0.00 | 47 | 1024.0 |
| 20260903013017 | 88 | 248 | 4.0 | 6.0 | 0.00 | 0.00 | 0.00 | 46 | 1024.0 |
| 20260903012017 | 89 | 248 | 5.0 | 9.0 | 0.00 | 0.00 | 0.00 | 44 | 1023.9 |
| 20260903011017 | 90 | 248 | 6.0 | 9.0 | 0.00 | 0.00 | 0.00 | 43 | 1023.9 |
| 20260903010017 | 91 | 248 | 4.0 | 7.0 | 0.00 | 0.00 | 0.00 | 43 | 1023.7 |
| 20260903005017 | 91 | 203 | 4.0 | 7.0 | 0.00 | 0.00 | 0.00 | 42 | 1023.7 |
| 20260903004016 | 91 | 225 | 4.0 | 7.0 | 0.00 | 0.00 | 0.00 | 41 | 1023.7 |
| 20260903003017 | 91 | 225 | 4.0 | 9.0 | 0.00 | 0.00 | 0.00 | 42 | 1023.8 |
| 20260903002017 | 91 | 225 | 5.0 | 9.0 | 0.00 | 0.00 | 0.00 | 42 | 1023.9 |
| 20260903001017 | 92 | 225 | 6.0 | 9.0 | 0.00 | 0.00 | 0.00 | 41 | 1024.0 |
| 20260903000017 | 93 | 225 | 5.0 | 10.0 | 0.00 | 0.00 | 0.00 | 40 | 1024.1 |
| 20260902235016 | 93 | 180 | 5.0 | 10.0 | 0.00 | 0.00 | 0.00 | 39 | 1024.1 |
| 20260902234017 | 94 | 203 | 7.0 | 15.0 | 0.00 | 0.00 | 0.00 | 39 | 1024.4 |
| 20260902233017 | 94 | 248 | 4.0 | 6.0 | 0.00 | 0.00 | 0.00 | 39 | 1024.3 |
| 20260902232017 | 94 | 203 | 5.0 | 12.0 | 0.00 | 0.00 | 0.00 | 41 | 1024.6 |
| 20260902231016 | 93 | 180 | 8.0 | 17.0 | 0.00 | 0.00 | 0.00 | 41 | 1024.6 |
| 20260902230016 | 94 | 158 | 6.0 | 13.0 | 0.00 | 0.00 | 0.00 | 41 | 1024.7 |
| 20260902225016 | 93 | 180 | 6.0 | 10.0 | 0.00 | 0.00 | 0.00 | 40 | 1024.7 |
| 20260902224016 | 92 | 180 | 6.0 | 10.0 | 0.00 | 0.00 | 0.00 | 42 | 1024.8 |
| 20260902223017 | 91 | 203 | 8.0 | 11.0 | 0.00 | 0.00 | 0.00 | 43 | 1024.6 |
| 20260902222016 | 90 | 225 | 6.0 | 9.0 | 0.00 | 0.00 | 0.00 | 39 | 1024.6 |
| 20260902221017 | 91 | 225 | 7.0 | 12.0 | 0.00 | 0.00 | 0.00 | 39 | 1024.8 |
| 20260902220016 | 91 | 225 | 4.0 | 7.0 | 0.00 | 0.00 | 0.00 | 38 | 1024.9 |
| 20260902215016 | 91 | 225 | 7.0 | 12.0 | 0.00 | 0.00 | 0.00 | 38 | 1025.0 |
| 20260902214016 | 92 | 248 | 7.0 | 11.0 | 0.00 | 0.00 | 0.00 | 36 | 1025.0 |
| 20260902213016 | 92 | 225 | 6.0 | 12.0 | 0.00 | 0.00 | 0.00 | 38 | 1025.1 |
| 20260902212016 | 93 | 248 | 7.0 | 14.0 | 0.00 | 0.00 | 0.00 | 38 | 1025.1 |
| 20260902211016 | 93 | 225 | 6.0 | 9.0 | 0.00 | 0.00 | 0.00 | 37 | 1025.4 |
| 20260902210017 | 93 | 225 | 4.0 | 8.0 | 0.00 | 0.00 | 0.00 | 37 | 1025.4 |
| 20260902205016 | 94 | 225 | 6.0 | 12.0 | 0.00 | 0.00 | 0.00 | 36 | 1025.3 |
| 20260902204016 | 94 | 248 | 7.0 | 11.0 | 0.00 | 0.00 | 0.00 | 37 | 1025.7 |
| 20260902203016 | 95 | 248 | 5.0 | 9.0 | 0.00 | 0.00 | 0.00 | 37 | 1025.7 |
| 20260902202016 | 94 | 270 | 5.0 | 10.0 | 0.00 | 0.00 | 0.00 | 39 | 1025.9 |
| 20260902201017 | 94 | 248 | 6.0 | 10.0 | 0.00 | 0.00 | 0.00 | 38 | 1025.9 |
| 20260902200017 | 95 | 248 | 8.0 | 16.0 | 0.00 | 0.00 | 0.00 | 38 | 1026.2 |
| 20260902195016 | 94 | 225 | 5.0 | 10.0 | 0.00 | 0.00 | 0.00 | 38 | 1026.4 |
| 20260902194016 | 93 | 270 | 6.0 | 11.0 | 0.00 | 0.00 | 0.00 | 39 | 1026.6 |
| 20260902193036 | 93 | 225 | 5.0 | 16.0 | 0.00 | 0.00 | 0.00 | 42 | 1026.7 |
| 20260902192016 | 93 | 248 | 7.0 | 13.0 | 0.00 | 0.00 | 0.00 | 42 | 1026.9 |
| 20260902191016 | 93 | 225 | 6.0 | 13.0 | 0.00 | 0.00 | 0.00 | 42 | 1027.3 |
| 20260902190036 | 93 | 203 | 5.0 | 9.0 | 0.00 | 0.00 | 0.00 | 42 | 1027.5 |
| 20260902185016 | 92 | 225 | 4.0 | 10.0 | 0.00 | 0.00 | 0.00 | 42 | 1027.3 |
| 20260902184017 | 92 | 248 | 7.0 | 12.0 | 0.00 | 0.00 | 0.00 | 42 | 1027.7 |
| 20260902183016 | 92 | 315 | 5.0 | 10.0 | 0.00 | 0.00 | 0.00 | 44 | 1027.9 |
| 20260902182016 | 91 | 338 | 4.0 | 7.0 | 0.00 | 0.00 | 0.00 | 44 | 1027.8 |
| 20260902181017 | 91 | 248 | 6.0 | 10.0 | 0.00 | 0.00 | 0.00 | 44 | 1028.1 |
| 20260902180016 | 90 | 225 | 3.0 | 8.0 | 0.00 | 0.00 | 0.00 | 45 | 1028.3 |
| 20260902175016 | 91 | 270 | 4.0 | 9.0 | 0.00 | 0.00 | 0.00 | 45 | 1028.2 |
| 20260902174017 | 91 | 248 | 5.0 | 8.0 | 0.00 | 0.00 | 0.00 | 46 | 1028.4 |
| 20260902173016 | 91 | 315 | 4.0 | 8.0 | 0.00 | 0.00 | 0.00 | 46 | 1028.5 |
| 20260902172016 | 91 | 203 | 3.0 | 8.0 | 0.00 | 0.00 | 0.00 | 46 | 1028.6 |
| 20260902171016 | 90 | 203 | 4.0 | 9.0 | 0.00 | 0.00 | 0.00 | 47 | 1028.6 |
| 20260902170016 | 89 | 180 | 2.0 | 6.0 | 0.00 | 0.00 | 0.00 | 48 | 1028.6 |
| 20260902165017 | 88 | 293 | 1.0 | 2.0 | 0.00 | 0.00 | 0.00 | 50 | 1028.6 |
| 20260902164016 | 88 | 248 | 3.0 | 6.0 | 0.00 | 0.00 | 0.00 | 50 | 1028.8 |
| 20260902163016 | 89 | 0.0 | 1.0 | 0.00 | 0.00 | 0.00 | 49 | 1029.0 | |
| 20260902162016 | 88 | 135 | 2.0 | 6.0 | 0.00 | 0.00 | 0.00 | 50 | 1028.8 |
| 20260902161016 | 88 | 180 | 1.0 | 5.0 | 0.00 | 0.00 | 0.00 | 51 | 1028.8 |
| 20260902160016 | 87 | 180 | 2.0 | 4.0 | 0.00 | 0.00 | 0.00 | 51 | 1028.8 |
| 20260902155037 | 86 | 203 | 3.0 | 6.0 | 0.00 | 0.00 | 0.00 | 53 | 1028.6 |
| 20260902154016 | 85 | 225 | 3.0 | 7.0 | 0.00 | 0.00 | 0.00 | 54 | |
| 20260902153017 | 84 | 180 | 2.0 | 4.0 | 0.00 | 0.00 | 0.00 | 55 | |
| 20260902152036 | 84 | 293 | 3.0 | 4.0 | 0.00 | 0.00 | 0.00 | 57 | |
| 20260902151016 | 83 | 0.0 | 2.0 | 0.00 | 0.00 | 0.00 | 60 | ||
| 20260902150016 | 82 | 315 | 1.0 | 3.0 | 0.00 | 0.00 | 0.00 | 63 | |
| 20260902145016 | 80 | 0.0 | 0.0 | 0.00 | 0.00 | 0.00 | 69 | ||
| 20260902144016 | 78 | 0.0 | 0.0 | 0.00 | 0.00 | 0.00 | 73 | 1028.4 | |
| 20260902143016 | 77 | 0.0 | 0.0 | 0.00 | 0.00 | 0.00 | 75 | 1028.2 | |
| 20260902142016 | 76 | 0.0 | 0.0 | 0.00 | 0.00 | 0.00 | 78 | 1028.1 | |
| 20260902141016 | 75 | 0.0 | 1.0 | 0.00 | 0.00 | 0.00 | 79 | ||
| 20260902140017 | 74 | 0.0 | 0.0 | 0.00 | 0.00 | 0.00 | 80 | ||
| 20260902135016 | 74 | 203 | 1.0 | 2.0 | 0.00 | 0.00 | 0.00 | 80 | |
| 20260902134016 | 74 | 203 | 2.0 | 3.0 | 0.00 | 0.00 | 0.00 | 79 | |
| 20260902133016 | 74 | 23 | 2.0 | 3.0 | 0.00 | 0.00 | 0.00 | 78 | |
| 20260902132016 | 74 | 68 | 2.0 | 4.0 | 0.00 | 0.00 | 0.00 | 78 | |
| 20260902131016 | 73 | 45 | 2.0 | 4.0 | 0.00 | 0.00 | 0.00 | 79 | |
| 20260902130016 | 73 | 68 | 3.0 | 4.0 | 0.00 | 0.00 | 0.00 | 80 | |
| 20260902125016 | 72 | 68 | 2.0 | 4.0 | 0.00 | 0.00 | 0.00 | 80 | |
| 20260902124016 | 72 | 68 | 3.0 | 5.0 | 0.00 | 0.00 | 0.00 | 80 | |
| 20260902123036 | 72 | 68 | 3.0 | 4.0 | 0.00 | 0.00 | 0.00 | 81 | |
| 20260902122016 | 72 | 45 | 3.0 | 4.0 | 0.00 | 0.00 | 0.00 | 81 | |
| 20260902121016 | 72 | 68 | 3.0 | 4.0 | 0.00 | 0.00 | 0.00 | 81 | |
| 20260902120056 | 72 | 68 | 2.0 | 3.0 | 0.00 | 0.00 | 0.00 | 81 | |
| 20260902115056 | 72 | 0.0 | 0.0 | 0.00 | 0.00 | 0.00 | 80 | ||
| 20260902114016 | 72 | 0.0 | 0.0 | 0.00 | 0.00 | 0.00 | 79 | ||
| 20260902113016 | 73 | 0.0 | 0.0 | 0.00 | 0.00 | 0.00 | 78 | ||
| 20260902112016 | 73 | 0.0 | 0.0 | 0.00 | 0.00 | 0.00 | 79 | ||
| 20260902111016 | 72 | 45 | 2.0 | 4.0 | 0.00 | 0.00 | 0.00 | 78 | |
| 20260902110016 | 72 | 45 | 3.0 | 5.0 | 0.00 | 0.00 | 0.00 | 79 | |
| 20260902105016 | 72 | 68 | 3.0 | 4.0 | 0.00 | 0.00 | 0.00 | 80 | |
| 20260902104016 | 72 | 45 | 2.0 | 3.0 | 0.00 | 0.00 | 0.00 | 80 | 1027.8 |
| 20260902103016 | 72 | 45 | 2.0 | 3.0 | 0.00 | 0.00 | 0.00 | 79 | 1027.9 |
| 20260902102016 | 72 | 45 | 2.0 | 3.0 | 0.00 | 0.00 | 0.00 | 79 | 1027.9 |
| 20260902101016 | 72 | 0.0 | 2.0 | 0.00 | 0.00 | 0.00 | 79 | 1027.7 | |
| 20260902100036 | 73 | 0.0 | 1.0 | 0.00 | 0.00 | 0.00 | 79 | 1027.7 | |
| 20260902095016 | 73 | 0.0 | 1.0 | 0.00 | 0.00 | 0.00 | 79 | 1027.7 | |
| 20260902094016 | 72 | 68 | 1.0 | 3.0 | 0.00 | 0.00 | 0.00 | 78 | 1027.8 |
| 20260902093036 | 72 | 45 | 2.0 | 3.0 | 0.00 | 0.00 | 0.00 | 79 | 1027.8 |
| 20260902092016 | 72 | 45 | 2.0 | 4.0 | 0.00 | 0.00 | 0.00 | 80 | 1027.8 |
| 20260902091016 | 72 | 45 | 1.0 | 6.0 | 0.00 | 0.00 | 0.00 | 80 | 1027.6 |
| 20260902090036 | 73 | 0.0 | 0.0 | 0.00 | 0.00 | 0.00 | 79 | 1027.5 | |
| 20260902085016 | 73 | 0.0 | 0.0 | 0.00 | 0.00 | 0.00 | 78 | 1027.3 | |
| 20260902084016 | 73 | 0.0 | 0.0 | 0.00 | 0.00 | 0.00 | 78 | 1027.4 | |
| 20260902083016 | 73 | 0.0 | 0.0 | 0.00 | 0.00 | 0.00 | 77 | 1027.5 |